This demonstration page uses our WeatherBlox Daily Observations layout. Learn more.

Left ArrowRight Arrow

Hourly Observations for January 9, 2016

Temp ( °F °C ) Dew Point ( °F °C ) Humidity (%) Winds ( mph kmh ) Pressure ( in mb ) Visibility ( mi km ) Precip ( " mm )
12:01 am 00:01 Cloudy with Light Snow 25 -3.9 19 -7.2 78 78 NNW 14 22 30.15 1021 3 5 0.00 0.03
12:54 am 00:54 Cloudy 21 -6.1 15 -9.4 78 78 N 23 37 30.09 1019 7 11 0.00 0.03
1:06 am 01:06 Mostly Cloudy 21 -6 16 -9 80 80 N 15 24 30.15 1021 10 16 0.00 0.00
1:54 am 01:54 Clear 21 -6.1 15 -9.4 78 78 NNW 18 30 30.09 1019 10 16 0.00 0.00
2:54 am 02:54 Mostly Cloudy 21 -6.1 14 -10 74 74 NNW 22 35 30.09 1019 10 16 0.00 0.00
3:54 am 03:54 Cloudy 20 -6.7 13 -10.6 74 74 N 26 43 30.06 1018 10 16 0.00 0.00
4:54 am 04:54 Mostly Cloudy 19 -7.2 12 -11.1 74 74 N 10 17 30.16 1021 10 16 0.00 0.00
5:54 am 05:54 Cloudy 18 -7.8 11 -11.7 74 74 N 16 26 30.18 1022 10 16 0.00 0.00
6:54 am 06:54 Cloudy 16 -8.9 9 -12.8 74 74 N 20 31 30.19 1022 10 16 0.00 0.00
7:54 am 07:54 Mostly Sunny 14 -10 6 -14.4 71 71 NNW 24 39 30.20 1023 10 16 0.00 0.03
8:54 am 08:54 Sunny 9 -12.8 2 -16.7 73 73 N 23 37 30.25 1024 10 16 0.00 0.00
9:54 am 09:54 Cloudy 11 -11.7 3 -16.1 70 70 N 18 30 30.27 1025 10 16 0.00 0.00
10:54 am 10:54 Mostly Cloudy 12 -11.1 4 -15.6 70 70 N 22 35 30.28 1026 10 16 0.00 0.00
11:54 am 11:54 Cloudy with Haze 12 -11.1 4 -15.6 70 70 NNW 20 31 30.27 1025 6 10 0.00 0.00
12:54 pm 12:54 Cloudy 12 -11.1 4 -15.6 70 70 N 21 33 30.26 1025 9 14 0.00 0.00
1:54 pm 13:54 Cloudy 14 -10 5 -15 67 67 NNW 23 37 30.25 1024 10 16 0.00 0.03
2:54 pm 14:54 Cloudy 13 -10.6 4 -15.6 67 67 N 22 35 30.27 1025 9 14 0.00 0.00
3:54 pm 15:54 Cloudy 13 -10.6 2 -16.7 61 61 N 25 41 30.29 1026 10 16 0.00 0.00
4:42 pm 16:42 Partly Cloudy 10 -12 1 -17 67 67 N 21 33 30.39 1029 10 16 0.00 0.00
4:54 pm 16:54 Sunny 9 -12.8 0 -17.8 66 66 N 21 33 30.31 1026 10 16 0.00 0.00
5:54 pm 17:54 Mostly Clear 7 -13.9 -1 -18.3 70 70 N 17 28 30.32 1027 10 16 0.00 0.00
6:54 pm 18:54 Clear 5 -15 -3 -19.4 69 69 N 20 31 30.35 1028 10 16 0.00 0.00
7:54 pm 19:54 Clear 4 -15.6 -4 -20 69 69 N 18 30 30.37 1028 10 16 0.00 0.00
8:54 pm 20:54 Clear 2 -16.7 -6 -21.1 69 69 N 14 22 30.39 1029 10 16 0.00 0.00
9:54 pm 21:54 Clear 2 -16.7 -6 -21.1 69 69 NNW 15 24 30.39 1029 10 16 0.00 0.00
10:54 pm 22:54 Clear 1 -17.2 -6 -21.1 72 72 N 13 20 30.39 1029 10 16 0.00 0.00
11:54 pm 23:54 Clear 0 -17.8 -7 -21.7 72 72 N 15 24 30.39 1029 10 16 0.00 0.00

Powered by AerisWeather